Flag for Cabo Verde Weather past 2 weeks in Santa Maria, Cabo Verde

Now
73 °F

Clear.


Feels Like: 72 °F
Forecast: 70 / 79 °F
Wind: 12 mph from North

Location: Dakar / Yoff

Current Time: May 29, 2015 at 2:03:05 AM

Latest Report: May 29, 2015 at 1:30 AM


Visibility: 10 mi

Pressure: 29.83 "Hg

Humidity: 89%

Dew point: 70 °F

Location of Santa MariaLocation

Historic Weather in Santa Maria — Graph

°F

Santa Maria temperature yesterday

Maximum temperature yesterday: 81 °F (at 11:30 AM)
Minimum temperature yesterday: 73 °F (at 12:00 AM)
Average temperature yesterday: 76 °F

Past Weeks' High & Low Weather Summary

 TemperatureHumidityPressure
High84 °F (May 22, 1:00 PM)100% (May 28, 1:00 PM)30.04 "Hg (May 28, 1:00 PM)
Low72 °F (May 14, 1:00 AM)66% (May 14, 2:00 PM)29.80 "Hg (May 14, 3:30 PM)
Average76 °F80%29.90 "Hg
* Reported May 14 1:00 AM — May 29 1:00 AM, Santa Maria, Weather by CustomWeather, © 2015

Note: Actual official high and low records may vary slightly from our data, if they occured in-between our weather recording intervals... More about our weather records

Advertising

Santa Maria weather history for previous 24 hours

 ConditionsComfort  
Time TempWeatherWind HumidityBarometerVisibility
1:00 AM
Fri, May 29
73 °FClear.13 mph89%29.83 "Hg10 mi
12:30 AM73 °FClear.13 mph89%29.86 "Hg10 mi
12:00 AM73 °FClear.14 mph89%29.86 "Hg10 mi
11:30 PM
Thu, May 28
73 °FClear.13 mph89%29.86 "Hg10 mi
11:00 PM73 °FClear.13 mph89%29.86 "Hg10 mi
10:30 PM73 °FClear.12 mph89%29.86 "Hg10 mi
9:00 PM73 °FClear.13 mph89%29.86 "Hg10 mi
8:30 PM73 °FClear.13 mph89%29.86 "Hg10 mi
8:00 PM73 °FClear.10 mph89%29.86 "Hg10 mi
7:30 PM73 °FClear.14 mph89%29.86 "Hg10 mi
7:00 PM75 °FClear.13 mph83%29.86 "Hg10 mi
6:30 PM75 °FSunny.14 mph83%29.83 "Hg10 mi
6:00 PM75 °FSunny.14 mph83%29.83 "Hg10 mi
5:30 PM77 °FSunny.15 mph79%29.83 "Hg10 mi
5:00 PM77 °FSunny.18 mph79%29.83 "Hg10 mi
4:30 PM79 °FSunny.16 mph74%29.83 "Hg10 mi
4:00 PM79 °FSunny.17 mph74%29.83 "Hg10 mi
3:30 PM79 °FSunny.17 mph74%29.83 "Hg10 mi
3:00 PM79 °FSunny.18 mph74%29.83 "Hg10 mi
2:30 PM81 °FSunny.18 mph70%29.83 "Hg10 mi
2:00 PM81 °FSunny.18 mph66%29.83 "Hg10 mi
1:30 PM79 °FPassing clouds.16 mph70%29.86 "HgN/A
1:00 PM79 °FSunny.17 mph100%29.86 "Hg10 mi
12:30 PM79 °FSunny.17 mph74%29.86 "Hg10 mi
12:00 PM81 °FSunny.18 mph66%29.89 "Hg10 mi
11:30 AM81 °FSunny.18 mph70%29.89 "Hg10 mi
11:00 AM79 °FPassing clouds.18 mph74%29.89 "HgN/A
10:30 AM79 °FPassing clouds.20 mph74%29.89 "HgN/A
10:00 AM79 °FPassing clouds.20 mph74%29.89 "HgN/A
9:30 AM77 °FPassing clouds.18 mph79%29.89 "HgN/A
9:00 AM77 °FScattered clouds.18 mph79%29.89 "HgN/A
8:30 AM77 °FScattered clouds.17 mph79%29.89 "HgN/A
8:00 AM75 °FScattered clouds.15 mph83%29.89 "HgN/A
7:30 AM75 °FPassing clouds.15 mph83%29.89 "HgN/A
7:00 AM73 °FPassing clouds.13 mph89%29.86 "HgN/A
6:30 AM73 °FSunny.13 mph89%29.86 "Hg10 mi
6:00 AM73 °FSunny.13 mph89%29.86 "Hg10 mi
5:30 AM73 °FClear.13 mph83%29.86 "Hg10 mi
5:00 AM73 °FClear.10 mph83%29.86 "Hg10 mi
4:30 AM73 °FClear.10 mph83%29.86 "Hg10 mi
4:00 AM73 °FClear.8 mph83%29.86 "Hg10 mi
3:30 AM73 °FClear.9 mph83%29.86 "Hg10 mi
3:00 AM73 °FClear.10 mph83%29.86 "Hg10 mi
2:30 AM73 °FClear.8 mph83%29.86 "Hg10 mi
2:00 AM73 °FClear.9 mph83%29.86 "Hg10 mi
Weather by CustomWeather, © 2015

See weather overviewHow to use our weather pages